Regional Weather Roundup
Issued by NWS Little Rock, AR

Home | Current Version | Previous Version | Graphics & Text | Print | Product List | Glossary On
Versions: 1 2 3 4 5 6 7 8 9 10 11 12 13 14 15 16 17 18 19 20 21 22 23 24 25 26 27 28 29 30 31 32 33 34 35 36 37 38 39 40 41 42 43 44 45 46 47 48 49 50
649
ASUS44 KLZK 300012
RWRLZK

WEATHER ROUNDUP FOR ARKANSAS
NATIONAL WEATHER SERVICE LITTLE ROCK AR
700 PM CDT WED MAR 29 2017

NOTE: "FAIR" INDICATES FEW OR NO CLOUDS BELOW 12,000 FEET WITH NO
SIGNIFICANT WEATHER AND/OR OBSTRUCTIONS TO VISIBILITY.

ARZ001-003-010-029-300100-
NORTHWEST ARKANSAS

CITY           SKY/WX    TMP DP  RH WIND       PRES   REMARKS
FAYETTEVILLE   PTCLDY    69  57  65 S12       29.68R
6HR MIN TEMP:  68; 6HR MAX TEMP:  72;

FORT SMITH     MOCLDY    75  57  53 SW5       29.68R
6HR MIN TEMP:  72; 6HR MAX TEMP:  78;

HARRISON       LGT RAIN  67  61  81 S9        29.72S
6HR MIN TEMP:  67; 6HR MAX TEMP:  74; 6HR PCP: TRACE;

BENTONVILLE    PTCLDY    72  54  53 S12G25    29.69R
6HR MIN TEMP:  70; 6HR MAX TEMP:  73;

ROGERS         PTCLDY    70  56  61 S12G26    29.69R
6HR MIN TEMP:  69; 6HR MAX TEMP:  74;

SILOAM SPGS    CLEAR     70  54  56 S15       29.66S
6HR MIN TEMP:  68; 6HR MAX TEMP:  73;

HIGHFILL       PTCLDY    72  56  57 S17G28    29.67R
6HR MIN TEMP:  70; 6HR MAX TEMP:  73; 6HR PCP: TRACE;

SPRINGDALE     MOCLDY    72  55  56 S16       29.70S
$$

ARZ004-005-016-300100-
NORTH CENTRAL ARKANSAS

CITY           SKY/WX    TMP DP  RH WIND       PRES   REMARKS
BATESVILLE     PTCLDY    75  59  57 SE12G22   29.75S
6HR MIN TEMP:  73; 6HR MAX TEMP:  79;

FLIPPIN        CLOUDY    73  57  56 SE7       29.68S
6HR MIN TEMP:  70; 6HR MAX TEMP:  77;

MTN HOME       CLOUDY    71  61  70 S9        29.70F
6HR MIN TEMP:  69; 6HR MAX TEMP:  76; 6HR PCP:  0.01;

$$

ARZ040-041-300100-
WEST CENTRAL ARKANSAS

CITY           SKY/WX    TMP DP  RH WIND       PRES   REMARKS
MENA           CLOUDY    73  68  83 S7        29.71F
MOUNT IDA      CLOUDY    75  59  57 S6        29.69S
6HR MIN TEMP:  73; 6HR MAX TEMP:  78; 6HR PCP: TRACE;

$$

ARZ009-017-025-026-028-300100-
NORTHEAST ARKANSAS

CITY           SKY/WX    TMP DP  RH WIND       PRES   REMARKS
CORNING        FAIR      75  63  64 S10       29.79R
JONESBORO      PTCLDY    76  61  59 S13       29.78R
6HR MIN TEMP:  75; 6HR MAX TEMP:  79;

NEWPORT        PTCLDY    75  61  61 SE14      29.76S
6HR MIN TEMP:  75; 6HR MAX TEMP:  80;

WALNUT RIDGE   CLOUDY    75  61  60 S14       29.76F
6HR MIN TEMP:  73; 6HR MAX TEMP:  79;

BLYTHEVILLE    CLOUDY    75  62  64 S8        29.79S
6HR MIN TEMP:  75; 6HR MAX TEMP:  81;

$$

ARZ022-023-033-042-044-300100-
CENTRAL ARKANSAS

CITY           SKY/WX    TMP DP  RH WIND       PRES   REMARKS
LITTLE ROCK    CLOUDY    77  60  55 S14       29.74R
6HR MIN TEMP:  77; 6HR MAX TEMP:  81;

N LITTLE ROCK    N/A     77  60  56 S9G20     29.75R
6HR MIN TEMP:  77; 6HR MAX TEMP:  80;

JACKSONVILLE   CLOUDY    78  60  54 SE10G20   29.74R
6HR MIN TEMP:  78; 6HR MAX TEMP:  81; 6HR PCP: TRACE;

CONWAY           N/A     77  61  57 SE12G18   29.71R
SEARCY         CLEAR     77  62  59 S15       29.77R
6HR MIN TEMP:  76; 6HR MAX TEMP:  80;

HOT SPRINGS    CLOUDY    77  61  57 S13       29.74R
6HR MIN TEMP:  73; 6HR MAX TEMP:  79;

RUSSELLVILLE   CLOUDY    75  59  57 S6G20     29.68F
6HR MIN TEMP:  72; 6HR MAX TEMP:  79;

$$

ARZ036-300100-
EAST ARKANSAS

CITY           SKY/WX    TMP DP  RH WIND       PRES   REMARKS
WEST MEMPHIS   MOCLDY    77  57  50 S15       29.80R
6HR MIN TEMP:  76; 6HR MAX TEMP:  82;

$$

ARZ050-053-066-070-073-300100-
SOUTHWEST ARKANSAS

CITY           SKY/WX    TMP DP  RH WIND       PRES   REMARKS
ARKADELPHIA    MOCLDY    75  64  68 S9        29.74S
6HR MIN TEMP:  74; 6HR MAX TEMP:  80;

CAMDEN         CLOUDY    75  61  60 S8        29.73F
TEXARKANA      MOCLDY    69  66  90 S9        29.73S
6HR MIN TEMP:  69; 6HR MAX TEMP:  79; 6HR PCP:  0.09;

EL DORADO      CLOUDY    73  64  73 SE3       29.74F
6HR MIN TEMP:  72; 6HR MAX TEMP:  80; 6HR PCP: TRACE;

DE QUEEN       PTCLDY    74  65  73 S6        29.69R
6HR MIN TEMP:  70; 6HR MAX TEMP:  75; 6HR PCP:  0.19;

$$

ARZ056-057-069-300100-
SOUTHEAST ARKANSAS

CITY           SKY/WX    TMP DP  RH WIND       PRES   REMARKS
PINE BLUFF     CLOUDY    76  61  59 S15G23    29.78R
6HR MIN TEMP:  76; 6HR MAX TEMP:  80;

STUTTGART      MOCLDY    79  57  47 S12       29.79R
6HR MIN TEMP:  77; 6HR MAX TEMP:  81;

MONTICELLO     CLOUDY    78  61  55 S6        29.76F
6HR MIN TEMP:  78; 6HR MAX TEMP:  82;


$$






USA.gov is the U.S. government's official web portal to all federal, state and local government web resources and services.